Claresholm, Alberta

7:11 AM MDT on June 27, 2017 (GMT -0600)
Claresholm

Weather History for CWDK - October, 2012

Change the Weather History Date:

Tuesday, October 23, 2012

  Actual Average Record
Temperature  
Mean Temperature 20 °F -  
Max Temperature 24 °F - - ()
Min Temperature 14 °F - - ()
Degree Days  
Heating Degree Days 45    
Moisture  
Dew Point 18 °F    
Average Humidity 89    
Maximum Humidity 98    
Minimum Humidity 76    
Precipitation  
Precipitation 0.20 in - - ()
Sea Level Pressure  
Sea Level Pressure 30.04 in    
Wind  
Wind Speed 12 mph ()    
Max Wind Speed 18 mph    
Max Gust Speed 28 mph    
T = Trace of Precipitation, MM = Missing Value Source: Averaged Metar Reports

Daily Weather History Graph

Daily Weather History Graph

Search for Another Location

Airport or City:

Trip Planner

Search our weather history database for the weather conditions in past years. The results will help you decide how hot, cold, wet, or windy it might be!

Date:

Astronomy

Oct. 23, 2012 Rise Set
Actual Time 8:10 AM MDT 6:26 PM MDT
Civil Twilight 7:37 AM MDT 6:59 PM MDT
Nautical Twilight 6:59 AM MDT 7:37 PM MDT
Astronomical Twilight 6:21 AM MDT 8:14 PM MDT
Moon 3:42 PM MDT (10/23) 1:32 AM MDT (10/23)
Length of Visible Light 11h 22m
Length of Day
10h 15m
Waxing Gibbous, 67% of the Moon is Illuminated
Oct 23
Waxing Gibbous
Oct 29
Full
Nov 6
Last Quarter
Nov 13
New
Nov 20
First Quarter

Hourly Weather History & Observations

Time (MDT) Temp. Windchill Dew Point Humidity Pressure Visibility Wind Dir Wind Speed Gust Speed Precip Events Conditions
12:00 AM 24 °F - 23 °F 96% 29.96 in - North 13.8 mph - -  
12:00 AM 23.9 °F 11.7 °F 23.4 °F 98% 29.96 in - North 13.8 mph - 0.04 in   Unknown
2:00 AM 22.5 °F 10.5 °F 21.7 °F 97% 29.96 in - North 12.7 mph - 0.05 in   Unknown
3:00 AM 22.3 °F 8.7 °F 21.6 °F 97% 29.95 in - North 16.1 mph 23.0 mph 0.04 in   Unknown
4:00 AM 22.1 °F 8.5 °F 21.4 °F 97% 29.96 in - NNW 16.1 mph - 0.03 in   Unknown
5:00 AM 22.1 °F 7.6 °F 21.4 °F 97% 29.96 in - North 18.4 mph - 0.02 in   Unknown
6:00 AM 22 °F - 21 °F 96% 29.97 in - NNW 15.0 mph - -  
6:00 AM 22.3 °F 9.2 °F 21.4 °F 96% 29.97 in - NNW 15.0 mph 21.9 mph 0.01 in   Unknown
7:00 AM 22.1 °F 7.6 °F 21.2 °F 96% 29.98 in - NNW 18.4 mph 24.2 mph N/A   Unknown
9:00 AM 21.6 °F 7.8 °F 20.3 °F 95% 30.01 in - NNW 16.1 mph 23.0 mph N/A   Unknown
10:00 AM 21.7 °F 8.0 °F 19.8 °F 92% 30.03 in - NNW 16.1 mph 25.3 mph N/A   Unknown
11:00 AM 22.3 °F 8.7 °F 19.6 °F 89% 30.04 in - NNW 16.1 mph 21.9 mph N/A   Unknown
12:00 PM 23 °F - 20 °F 83% 30.04 in - NNW 15.0 mph - -  
12:00 PM 22.8 °F 9.9 °F 19.9 °F 89% 30.04 in - NNW 15.0 mph 21.9 mph N/A   Unknown
1:00 PM 22.8 °F 8.5 °F 18.5 °F 83% 30.04 in - NNW 18.4 mph 27.6 mph N/A   Unknown
2:00 PM 23.2 °F 9.0 °F 18.0 °F 80% 30.05 in - NNW 18.4 mph 25.3 mph N/A   Unknown
3:00 PM 24.1 °F 11.5 °F 17.4 °F 76% 30.06 in - NNW 15.0 mph - N/A   Unknown
4:00 PM 24.3 °F 13.3 °F 17.6 °F 76% 30.07 in - North 11.5 mph - N/A   Unknown
5:00 PM 21.7 °F 12.3 °F 16.2 °F 79% 30.09 in - North 8.1 mph - N/A   Unknown
6:00 PM 19 °F - 15 °F 78% 30.12 in - North 4.6 mph - -  
6:00 PM 19.2 °F 12.5 °F 15.1 °F 84% 30.12 in - North 4.6 mph - N/A   Unknown
7:00 PM 16.3 °F 10.8 °F 13.6 °F 89% 30.14 in - North 3.5 mph - N/A   Unknown
8:00 PM 19.0 °F 11.1 °F 14.7 °F 83% 30.14 in - North 5.8 mph - N/A   Unknown
9:00 PM 17.1 °F - 14.0 °F 88% 30.16 in - NNW 2.3 mph - N/A   Unknown
10:00 PM 17.6 °F - 13.8 °F 85% 30.16 in - North 2.3 mph - N/A   Unknown
11:00 PM 14.2 °F 8.4 °F 10.8 °F 86% 30.17 in - NW 3.5 mph - N/A   Unknown